Regional Weather Roundup
Issued by NWS

Home | Current Version | Previous Version | Text Only | Print | Product List | Glossary On
Versions: 1 2 3 4 5 6 7 8 9 10 11 12 13 14 15 16 17 18 19 20 21 22 23 24 25 26 27 28 29 30 31 32 33 34 35 36 37 38 39 40 41 42 43 44 45 46 47 48 49 50
000
ASUS43 KBIS 271502
RWRND

NORTH DAKOTA REGIONAL WEATHER ROUNDUP
NATIONAL WEATHER SERVICE BISMARCK ND
1000 AM CDT FRI MAY 27 2016

NOTE: "FAIR" INDICATES FEW OR NO CLOUDS BELOW 12,000 FEET WITH NO
SIGNIFICANT WEATHER AND/OR OBSTRUCTIONS TO VISIBILITY.


NDZ001>003-009>011-017-271600-
NORTHWEST NORTH DAKOTA

CITY           SKY/WX    TMP DP  RH WIND       PRES   REMARKS
WILLISTON      PTSUNNY   63  50  62 NE3       29.87S
MINOT          CLOUDY    62  53  72 NW8       29.82F
MINOT AFB      CLOUDY    57  54  88 NW12      29.82S
$$

NDZ018>021-031>035-040>046-271600-
SOUTHWEST NORTH DAKOTA

CITY           SKY/WX    TMP DP  RH WIND       PRES   REMARKS
BISMARCK       SUNNY     61  52  72 N9        29.84S
DICKINSON      SUNNY     60  47  61 N6        29.84S
GARRISON         N/A     58  52  80 VRB3      29.84F
HETTINGER ARPT SUNNY     62  47  57 N8        29.86S
$$

NDZ004>008-012>016-024-026-027-054-271600-
NORTHEAST NORTH DAKOTA

CITY           SKY/WX    TMP DP  RH WIND       PRES   REMARKS
GRAND FORKS    PTSUNNY   64  54  69 VRB3      29.81R
GRND FRKS AFB  SUNNY     62  55  77 VRB2      29.82S
DEVILS LAKE    MOSUNNY   60  52  74 NW7       29.82S
$$

NDZ022-023-025-028>030-036>039-047>053-271600-
SOUTHEAST NORTH DAKOTA

CITY           SKY/WX    TMP DP  RH WIND       PRES   REMARKS
FARGO          PTSUNNY   67  58  72 N8        29.79R
JAMESTOWN      MOSUNNY   62  54  74 NE12      29.82R
$$





USA.gov is the U.S. government's official web portal to all federal, state and local government web resources and services.